Location: New Canada
(47.1017°N, 68.5042°W)
Time: 08:25:05
(UTC+00:00)

EO-79 - Pass Details

Date: 01 April 2023
Orbit: 578 x 593 km, 98.0° (Epoch: 03 June)

Event Time Altitude Azimuth Distance (km) Brightness Sun altitude
Rises 07:26:37 0° 6° (N) 2,832 ? -26.5°
Reaches altitude 10° 07:28:53 10° 359° (N) 1,923 ? -26.2°
Enters shadow 07:31:16 28° 335° (NNW) 1,109 ? -25.9°
